EW9530 Weather Reports


Display with metric or nautical units.
time (UTC)temp
F
wind
direction
speed
MPH
gust
MPH
rain 1hr
in
rain 24hr
in
rain mn
in
humidity
%
barometer
mb
20260903234654 72 39 0.0 2.0 0.00 0.00 0.00 85 1023.0
20260903233147 73 39 1.0 4.0 0.00 0.00 0.00 85 1023.0
20260903231655 73 42 0.0 3.0 0.00 0.00 0.00 85 1023.0
20260903230153 74 69 0.0 3.0 0.00 0.00 0.00 84 1023.0
20260903224655 74 148 0.0 2.0 0.00 0.00 0.00 83 1023.0
20260903223143 75 170 0.0 0.0 0.00 0.00 0.00 83 1022.9
20260903221654 76 170 0.0 0.0 0.00 0.00 0.00 82 1022.9
20260903220156 76 171 0.0 0.0 0.00 0.00 0.00 83 1022.9
20260903214652 77 171 0.0 0.0 0.00 0.00 0.00 81 1023.0
20260903213139 77 171 0.0 0.0 0.00 0.00 0.00 81 1022.9
20260903211651 78 171 0.0 3.0 0.00 0.00 0.00 80 1022.9
20260903210154 78 177 0.0 5.0 0.00 0.00 0.00 79 1022.8
20260903204653 78 159 1.0 5.0 0.00 0.00 0.00 78 1022.9
20260903203143 78 111 2.0 9.0 0.00 0.00 0.00 77 1022.9
20260903201653 79 107 3.0 9.0 0.00 0.00 0.00 76 1022.9
20260903200155 79 99 3.0 9.0 0.00 0.00 0.00 76 1022.8
20260903194654 79 112 2.0 8.0 0.00 0.00 0.00 75 1022.6
20260903193142 80 92 2.0 11.0 0.00 0.00 0.00 74 1022.3
20260903191653 80 71 3.0 9.0 0.00 0.00 0.00 73 1022.1
20260903190151 80 146 4.0 11.0 0.00 0.00 0.00 71 1021.8
20260903184653 81 98 2.0 10.0 0.00 0.00 0.00 70 1021.5
20260903183154 81 96 5.0 11.0 0.00 0.00 0.00 69 1021.3
20260903180154 83 84 2.0 9.0 0.00 0.00 0.00 65 1021.0
20260903174652 84 135 2.0 9.0 0.00 0.00 0.00 64 1020.8
20260903173144 85 72 4.0 12.0 0.00 0.00 0.00 62 1020.7
20260903171653 86 105 5.0 11.0 0.00 0.00 0.00 61 1020.6
20260903170155 87 52 5.0 13.0 0.00 0.00 0.00 59 1020.6
20260903164652 87 140 5.0 12.0 0.00 0.00 0.00 59 1020.5
20260903163141 88 123 5.0 15.0 0.00 0.00 0.00 58 1020.5
20260903161652 89 136 8.0 12.0 0.00 0.00 0.00 57 1020.5
20260903154654 91 96 5.0 11.0 0.00 0.00 0.00 54 1020.4
20260903153147 93 113 2.0 12.0 0.00 0.00 0.00 48 1020.5
20260903151654 92 198 3.0 13.0 0.00 0.00 0.00 47 1020.6
20260903150154 93 168 5.0 15.0 0.00 0.00 0.00 46 1020.8
20260903144655 92 133 8.0 17.0 0.00 0.00 0.00 45 1020.9
20260903143140 92 117 7.0 19.0 0.00 0.00 0.00 44 1021.0
20260903141651 92 157 6.0 17.0 0.00 0.00 0.00 42 1021.0
20260903140159 93 167 8.0 17.0 0.00 0.00 0.00 41 1021.0
20260903134656 93 121 8.0 16.0 0.00 0.00 0.00 41 1021.1
20260903133143 92 123 9.0 17.0 0.00 0.00 0.00 43 1021.3
20260903131653 92 192 6.0 17.0 0.00 0.00 0.00 43 1021.3
20260903130152 92 202 9.0 20.0 0.00 0.00 0.00 43 1021.4
20260903124653 93 105 6.0 14.0 0.00 0.00 0.00 41 1021.5
20260903123142 93 144 5.0 13.0 0.00 0.00 0.00 40 1021.5
20260903121654 93 155 7.0 14.0 0.00 0.00 0.00 39 1021.6
20260903120158 93 96 2.0 10.0 0.00 0.00 0.00 40 1021.6
20260903114653 92 155 5.0 13.0 0.00 0.00 0.00 40 1021.8
20260903113147 91 148 4.0 11.0 0.00 0.00 0.00 41 1022.0
20260903111656 90 101 5.0 15.0 0.00 0.00 0.00 42 1022.2
20260903110158 90 80 7.0 13.0 0.00 0.00 0.00 42 1022.5
20260903104656 90 145 3.0 13.0 0.00 0.00 0.00 42 1022.6
20260903103144 89 110 6.0 11.0 0.00 0.00 0.00 41 1022.9
20260903101650 88 73 5.0 12.0 0.00 0.00 0.00 41 1023.1
20260903100201 87 117 2.0 7.0 0.00 0.00 0.00 44 1023.3
20260903094652 83 282 0.0 3.0 0.00 0.00 0.00 54 1023.4
20260903093141 83 269 0.0 2.0 0.00 0.00 0.00 56 1023.5
20260903091651 81 36 0.0 0.0 0.00 0.00 0.00 58 1023.6
20260903090154 79 36 1.0 4.0 0.00 0.00 0.00 62 1023.7
20260903084653 78 52 0.0 3.0 0.00 0.00 0.00 64 1023.7
20260903083143 76 74 1.0 6.0 0.00 0.00 0.00 67 1023.7
20260903081658 74 28 2.0 5.0 0.00 0.00 0.00 70 1023.7
20260903080155 73 45 2.0 6.0 0.00 0.00 0.00 72 1023.8
20260903074653 72 45 1.0 5.0 0.00 0.00 0.00 75 1023.9
20260903073143 71 39 2.0 6.0 0.00 0.00 0.00 77 1024.0
20260903071652 70 36 1.0 5.0 0.00 0.00 0.00 80 1024.2
20260903070156 68 52 2.0 6.0 0.00 0.00 0.00 82 1024.2
20260903064653 67 37 3.0 7.0 0.00 0.00 0.00 84 1024.2
20260903063143 66 28 1.0 5.0 0.00 0.00 0.00 85 1024.3
20260903061653 65 60 2.0 4.0 0.00 0.00 0.00 87 1024.1
20260903060154 64 53 2.0 4.0 0.00 0.00 0.00 88 1024.0
20260903054653 64 53 1.0 3.0 0.00 0.00 0.00 87 1023.9
20260903053157 64 53 0.0 1.0 0.00 0.00 0.00 87 1023.7
20260903051646 64 53 1.0 3.0 0.00 0.00 0.00 85 1023.5
20260903050157 65 53 0.0 2.0 0.00 0.00 0.00 86 1023.4
20260903044652 65 53 0.0 4.0 0.00 0.00 0.00 85 1023.3
20260903041654 65 51 0.0 3.0 0.00 0.00 0.00 85 1023.2
20260903040157 65 51 0.0 1.0 0.00 0.00 0.00 85 1023.2
20260903034653 66 51 0.0 0.0 0.00 0.00 0.00 85 1023.3
20260903033147 66 51 0.0 3.0 0.00 0.00 0.00 85 1023.5
20260903031654 67 42 2.0 4.0 0.00 0.00 0.00 84 1023.4
20260903030154 67 32 1.0 3.0 0.00 0.00 0.00 84 1023.5
20260903024653 67 32 0.0 3.0 0.00 0.00 0.00 84 1023.5
20260903023141 67 44 0.0 3.0 0.00 0.00 0.00 82 1023.5
20260903021654 67 44 0.0 1.0 0.00 0.00 0.00 82 1023.5
20260903020153 68 38 0.0 4.0 0.00 0.00 0.00 81 1023.5
20260903014652 68 42 0.0 6.0 0.00 0.00 0.00 82 1023.4
20260903013140 68 53 1.0 4.0 0.00 0.00 0.00 82 1023.4
20260903011654 68 50 0.0 4.0 0.00 0.00 0.00 83 1023.5
20260903010154 69 50 0.0 1.0 0.00 0.00 0.00 82 1023.5
20260903004652 69 50 0.0 3.0 0.00 0.00 0.00 81 1023.6
20260903003145 70 50 0.0 3.0 0.00 0.00 0.00 81 1023.5
20260903001652 70 50 1.0 5.0 0.00 0.00 0.00 80 1023.6
20260903000151 70 30 0.0 3.0 0.00 0.00 0.00 79 1023.5